STARLINK-32412, 61680

Orbit data source: Space-Track

STARLINK-32412, 61680 is a payload satellite owned by SpaceX/Seattle (US) in LEO that was launched on Sat, 26 Oct 2024 UTC via an FALCON 9 launch vehicle from the Air Force Eastern Test Range (AFETR). Payload-class satellites include a variety of spacecraft equipped with specific instruments for various scientific and technological missions. These include communications satellites like Starlink; space stations such as the ISS; scientific satellites like the Hubble; Earth observation satellites from companies like Planet Labs, Umbra, and HawkEye 360; GPS; miniature CubeSats for education and research; and military/defense satellites.

Loading next visibility...
Identifier
61680, 2024-193V
Orbit
LEO
Country
Flag of USUS
Related business
Manufacturer
SpaceX/Seattle
Mission
Operational Commercial Communications
Bus & Motor
STARLINK V2M, Unknown motor
Mass
730 kg wet, ~700 kg dry
Launch date (UTC)
2024-10-26 (1 year ago)
Launch vehicle
FALCON 9
Launch site
Air Force Eastern Test Range (AFETR)
Object type
Payload
Rocket body
Debris
Shape & HBR
Box + 2 Pan, 17.7 m
Radar Cross Section
33.884 m², Large (>1 m²)

Expand to show TLE details & history
Last TLE update: 14 hours ago

TLE from 14 hours ago
0 STARLINK-32412
1 61680U 24193V   26036.95105875 -.00000321  00000-0  12970-5 0  9998
2 61680  53.1570 238.6835 0001430  85.7156 274.4008 15.30175636 71661
Epoch: 2026-02-05T22:49Z
TLE epoch observation values (Epoch: 2026-02-05T22:49:31.475Z)
Latitude
-0°
Longitude
120.20642°
Altitude
476.112 km
Speed
7.629 km/s
True Right ascension
15h 54m 44s
True Declination
0° 00' 00"
Sunlit
Object was in daylight at epoch
Visualization orbit readout
Latitude
Unknown
Longitude
Unknown
Altitude
Unknown
Speed
Unknown
Apparent Right ascension
Unknown
Apparent Declination
Unknown
Sunlit
N/A
Visualization observer readout
Local Sidereal Time
15:23:07
Azimuth
Unknown
Elevation
Unknown
Doppler factor
Unknown
Orbital elements
Apogee altitude
476.525 km
Perigee altitude
474.565 km
Semi-major axis
6,853.682 km
Eccentricity
0.00014
Inclination
53.157°
RAAN
238.6835°
Arg. of periapsis
85.7156°
True anomaly
274.38446°
Mean anomaly
274.4008°
Eccentric anomaly
274.39263°
Mean motion
3.82523 °/min
Orbital period
94.11 mins
BSTAR
0.000001297
Loading maneuver chart data...
Computing Atmospheric mass density...
Loading historical data...
Loading historical data...
Loading historical data...
Loading historical data...
Loading historical data...
Loading historical data...
Loading historical data...

Documentation

Showing up to 5 results
|